Location: Ladd Observatory
(41.8387°N, 71.3996°W)
Time: 11:41:09
(UTC-04:00)

ISS - Visible Passes

Search period start: 27 March 2015 00:00
Search period end: 06 April 2015 00:00
Orbit: 396 x 406 km, 51.6° (Epoch: 27 March)

Date Brightness Start Highest point End Pass type
(mag) Time Alt. Az. Time Alt. Az. Time Alt. Az.
27 Mar -1.3 05:03:01 14° NNW 05:05:10 26° NNE 05:07:57 10° E visible
28 Mar -0.8 04:11:55 19° NNE 04:11:55 19° NNE 04:14:04 10° ENE visible
28 Mar -3.3 05:45:12 10° NW 05:48:26 79° NNE 05:51:39 10° ESE visible
29 Mar -2.3 04:53:33 25° NNW 04:55:01 43° NNE 04:58:07 10° ESE visible
30 Mar -0.7 04:02:45 21° ENE 04:02:45 21° ENE 04:04:21 10° E visible
30 Mar -3.0 05:35:22 13° WNW 05:38:00 44° SW 05:41:04 10° SSE visible
31 Mar -3.4 04:44:47 79° SE 04:44:47 79° SE 04:47:50 10° SE visible
01 Apr -1.9 05:27:08 19° SW 05:27:19 19° SW 05:29:42 10° S visible
02 Apr -0.6 21:09:38 10° SW 21:09:50 11° SW 21:09:50 11° SW visible
03 Apr -2.3 20:16:38 10° SSW 20:19:23 26° SE 20:20:00 24° ESE visible
03 Apr -0.1 21:52:34 10° W 21:52:40 11° W 21:52:40 11° W visible
04 Apr -3.2 20:58:48 10° WSW 21:02:03 71° NW 21:02:28 60° NNE visible
05 Apr -3.3 20:05:16 10° SW 20:08:28 59° SE 20:11:42 10° ENE visible
05 Apr -1.0 21:42:18 10° WNW 21:44:34 24° NW 21:44:34 24° NW visible
